Date,TemperatureHighF,TemperatureAvgF,TemperatureLowF,DewpointHighF,DewpointAvgF,DewpointLowF,HumidityHigh,HumidityAvg,HumidityLow,PressureMaxIn,PressureMinIn,WindSpeedMaxMPH,WindSpeedAvgMPH,GustSpeedMaxMPH,PrecipitationSumIn
2013-6-1,86.6,75.8,66.2,70.8,66.2,61.9,93,73,53,30.00,29.78,2,0,8,0.02
2013-6-2,81.4,72.8,64.1,68.8,64.5,59.2,94,76,51,29.84,29.76,2,0,7,0.07
2013-6-3,66.5,63.7,61.6,60.5,58.0,50.1,87,82,66,29.97,29.84,1,0,5,0.00
2013-6-4,65.9,59.1,53.2,52.4,49.9,48.2,85,72,53,30.15,30.11,0,0,0,0.00
2013-6-5,80.8,62.9,48.2,63.5,52.6,45.8,93,71,49,30.15,29.92,2,0,5,0.00
2013-6-6,69.6,64.9,62.0,66.1,62.0,58.3,95,91,75,29.93,29.76,1,0,6,1.06
2013-6-7,66.5,63.3,59.6,62.9,60.6,55.1,96,91,83,29.84,29.73,1,0,4,0.00
2013-6-8,71.2,61.9,56.4,60.1,55.7,53.1,93,81,60,30.11,29.84,1,0,4,0.00
2013-6-9,82.9,69.8,54.6,66.1,59.9,52.9,96,73,46,30.17,30.00,2,0,7,0.00
2013-6-10,76.7,69.2,64.5,70.9,66.3,62.7,95,91,78,30.01,29.76,2,0,5,0.98
2013-6-11,75.7,68.3,63.2,69.4,64.3,61.7,96,88,68,29.87,29.77,2,0,7,0.02
2013-6-12,84.2,72.3,61.4,71.4,66.4,60.0,97,83,53,29.90,29.72,2,0,8,0.00
2013-6-13,72.5,67.3,61.1,70.7,63.3,55.8,95,87,78,29.77,29.51,4,1,11,1.02
2013-6-14,72.5,62.8,54.6,61.3,57.0,52.6,95,82,59,30.05,29.77,2,0,5,0.00
2013-6-15,77.5,64.7,49.5,59.0,53.9,46.0,97,72,35,30.14,30.00,2,0,5,0.00
2013-6-16,73.6,66.7,61.9,68.9,63.5,57.3,95,89,79,30.02,29.89,1,0,4,0.37
2013-6-17,84.0,72.1,65.0,68.2,64.1,58.3,96,78,45,29.97,29.87,2,0,5,0.02
2013-6-18,77.5,67.5,61.9,68.5,63.1,59.8,94,86,65,29.94,29.82,0,0,3,0.02
2013-6-19,75.5,65.0,55.4,60.5,54.0,46.1,90,70,38,30.14,29.93,2,0,7,0.00
2013-6-20,81.0,65.6,49.0,60.9,53.9,47.3,96,70,37,30.23,30.14,2,0,5,0.00
2013-6-21,84.2,69.7,53.6,65.3,58.3,51.9,96,71,38,30.25,30.14,2,0,4,0.00
2013-6-22,86.2,72.4,58.0,73.1,65.2,56.3,96,79,59,30.19,30.05,2,0,5,0.00
2013-6-23,89.6,75.9,64.5,72.4,67.7,63.0,96,77,48,30.14,30.02,2,0,6,0.00
2013-6-24,89.7,76.6,64.8,72.5,67.3,63.2,96,75,46,30.11,29.97,2,0,7,0.00
2013-6-25,88.8,75.7,65.6,73.6,67.4,62.5,95,77,50,30.03,29.84,4,0,9,0.38
2013-6-26,82.3,72.3,65.4,72.5,67.7,63.9,96,86,62,29.97,29.80,2,0,5,1.76
2013-6-27,76.7,70.3,66.3,73.0,68.1,64.1,96,93,83,29.80,29.61,1,0,5,0.67
2013-6-28,76.9,68.3,62.2,71.4,65.4,61.0,97,91,74,29.64,29.47,3,0,5,0.21
2013-6-29,79.2,68.9,59.9,68.9,63.8,58.8,97,85,62,29.68,29.53,2,0,6,0.00
2013-6-30,84.3,69.7,60.4,71.4,64.8,59.3,97,86,57,29.83,29.67,3,0,9,0.29